Regional Weather Roundup
Issued by NWS

Home | Current Version | Previous Version | Text Only | Print | Product List | Glossary On
Versions: 1 2 3 4 5 6 7 8 9 10 11 12 13 14 15 16 17 18 19 20 21 22 23 24 25 26 27 28 29 30 31 32 33 34 35 36 37 38 39 40 41 42 43 44 45 46 47 48 49 50
000
ASUS44 KOUN 290410
RWROK

WEATHER ROUNDUP FOR OKLAHOMA
NATIONAL WEATHER SERVICE NORMAN OK
1100 PM CDT FRI AUG 28 2015

NOTE: "FAIR" INDICATES FEW OR NO CLOUDS BELOW 12,000 FEET WITH NO
      SIGNIFICANT WEATHER AND/OR OBSTRUCTIONS TO VISIBILITY.

OKZ001>007-009>012-014-015-017-290500-
NORTHWEST OKLAHOMA AND THE PANHANDLE

CITY           SKY/WX    TMP DP  RH WIND       PRES   REMARKS
GAGE           MOCLDY    76  60  57 S8        30.02R
GUYMON         CLOUDY    71  60  68 SW5       30.08R
ENID/WOODRING  PTCLDY    73  70  88 S8        29.94R
$$

OKZ016-021>023-033>039-044-045-290500-
SOUTHWEST OKLAHOMA

CITY           SKY/WX    TMP DP  RH WIND       PRES   REMARKS
LAWTON/REGL    MOCLDY    84  65  52 SE7       29.97R
LAWTON/FT SILL CLOUDY    83  66  57 S6        29.96R
FREDERICK      MOCLDY    78  68  71 SE7       29.94R
CLINTON        PTCLDY    77  62  59 SW8       30.02R
HOBART         PTCLDY    77  63  61 S7        30.00R
ALTUS AFB      PTCLDY    75  67  77 NE2       29.98R
$$

OKZ018>020-024>031-290500-
CENTRAL OKLAHOMA

CITY           SKY/WX    TMP DP  RH WIND       PRES   REMARKS
OKLAHOMA CITY  PTCLDY    73  67  81 S6        29.97R
OKC/WILEY POST CLEAR     79  66  64 SW10      29.96R
OKC/TINKER AFB MOCLDY    75  69  82 S10       29.96R
STILLWATER     PTCLDY    75  69  81 SE8       29.95R
GUTHRIE        PTCLDY    75  68  78 S5        29.96R
$$

OKZ008-013-054>072-290500-
NORTHEAST OKLAHOMA

CITY           SKY/WX    TMP DP  RH WIND       PRES   REMARKS
TULSA          MOCLDY    78  67  68 S10       29.93S
TULSA/JONES    MOCLDY    77  69  76 S5        29.95S
PONCA CITY     CLEAR     77  68  73 S8        29.92F
BARTLESVILLE   CLEAR     72  70  93 CALM      29.94S
MUSKOGEE       PTCLDY    74  67  78 SE7       29.97S
$$

OKZ032-040>043-046>053-073>077-290500-
SOUTH CENTRAL/SOUTHEAST OKLAHOMA

CITY           SKY/WX    TMP DP  RH WIND       PRES   REMARKS
ARDMORE/DWNTWN MOCLDY    82  63  51 S6        29.98R
MCALESTER      MOCLDY    81  61  50 S6        29.98R
$$



USA.gov is the U.S. government's official web portal to all federal, state and local government web resources and services.